{"data":{"norad_id":63068,"intl_designator":"2025-035S","name":"STARLINK-33627","alt_names":[],"object_type":"PAYLOAD","status":"ACTIVE","operator":null,"country":"US","launch_date":"2025-02-21","launch_site_code":"AFETR","launch_vehicle":null,"mission":null,"orbit_class":"UNKNOWN","rcs_meters":null,"size_class":null,"mass_kg":null,"dimensions":null,"purposes":["comms"],"wikipedia_slug":null,"has_3d_model":false,"image_url":null,"decayed_at":null,"tle_current":{"epoch":"2026-09-21T00:46:59.256192Z","epoch_age_seconds":116307,"freshness":"FRESH","line1":"1 63068U 25035S   26264.03263028  .00011591  00000+0  42992-3 0  9997","line2":"2 63068  43.0040 123.9857 0001453 281.3651  78.7037 15.27592026 89592","mean_motion":15.27592026,"eccentricity":0.0001453,"inclination_deg":43.004,"raan_deg":123.9857,"arg_perigee_deg":281.3651,"mean_anomaly_deg":78.7037,"bstar":0.00042992,"rev_number":8959,"period_min":94.266006596712,"perigee_km":482.01616099805,"apogee_km":484.01001121308,"semimajor_km":6861.1500861056,"source":"CELESTRAK","updated_at":"2026-09-22T09:00:49.754161Z"}}}